TimeEET,TemperatureF,Dew PointF,Humidity,Sea Level PressureIn,VisibilityMPH,Wind Direction,Wind SpeedMPH,Gust SpeedMPH,PrecipitationIn,Events,Conditions,WindDirDegrees,DateUTC
12:20 AM,39.2,33.8,81,30.24,-9999.0,North,-9999.0,-,N/A,,Clear,0,2013-03-04 22:20:00
12:50 AM,39.2,33.8,81,30.24,-9999.0,North,-9999.0,-,N/A,,Clear,0,2013-03-04 22:50:00
2:00 AM,37,33,79,30.26,6,Calm,Calm,,,,,,2013-03-05 00:00:00
2:50 AM,37.4,32.0,81,30.24,-9999.0,North,-9999.0,-,N/A,,Clear,0,2013-03-05 00:50:00
3:50 AM,37.4,32.0,81,30.24,-9999.0,North,-9999.0,-,N/A,,Clear,0,2013-03-05 01:50:00
4:20 AM,37.4,32.0,81,30.24,-9999.0,North,-9999.0,-,N/A,,Clear,0,2013-03-05 02:20:00
4:50 AM,37.4,33.8,87,30.24,-9999.0,North,-9999.0,-,N/A,,Clear,0,2013-03-05 02:50:00
5:20 AM,37.4,33.8,87,30.24,-9999.0,North,-9999.0,-,N/A,,Clear,0,2013-03-05 03:20:00
5:50 AM,37.4,33.8,87,30.24,-9999.0,North,-9999.0,-,N/A,,Clear,0,2013-03-05 03:50:00
6:20 AM,37.4,33.8,87,30.24,-9999.0,North,-9999.0,-,N/A,,Clear,0,2013-03-05 04:20:00
6:50 AM,37.4,32.0,81,30.27,-9999.0,North,-9999.0,-,N/A,,Clear,0,2013-03-05 04:50:00
7:20 AM,37.4,32.0,81,30.30,-9999.0,North,-9999.0,-,N/A,,Clear,0,2013-03-05 05:20:00
7:50 AM,41.0,33.8,76,30.36,-9999.0,North,-9999.0,-,N/A,,Partly Cloudy,0,2013-03-05 05:50:00
8:00 AM,41,34,66,30.38,6,Calm,Calm,,,,Scattered Clouds,,2013-03-05 06:00:00
8:20 AM,41.0,33.8,76,30.42,-9999.0,North,-9999.0,-,N/A,,Partly Cloudy,0,2013-03-05 06:20:00
8:50 AM,44.6,35.6,71,30.45,-9999.0,North,-9999.0,-,N/A,,Partly Cloudy,0,2013-03-05 06:50:00
9:20 AM,44.6,35.6,71,30.45,-9999.0,North,-9999.0,-,N/A,,Partly Cloudy,0,2013-03-05 07:20:00
9:50 AM,46.4,33.8,62,30.45,-9999.0,North,-9999.0,-,N/A,,Partly Cloudy,0,2013-03-05 07:50:00
10:20 AM,46.4,33.8,62,30.45,-9999.0,North,-9999.0,-,N/A,,Partly Cloudy,0,2013-03-05 08:20:00
10:50 AM,46.4,35.6,66,30.48,-9999.0,North,-9999.0,-,N/A,,Partly Cloudy,0,2013-03-05 08:50:00
11:20 AM,46.4,32.0,57,30.48,-9999.0,North,-9999.0,-,N/A,,Partly Cloudy,0,2013-03-05 09:20:00
11:50 AM,46.4,32.0,57,30.48,-9999.0,North,-9999.0,-,N/A,,Partly Cloudy,0,2013-03-05 09:50:00
12:20 PM,48.2,32.0,54,30.48,-9999.0,North,-9999.0,-,N/A,,Partly Cloudy,0,2013-03-05 10:20:00
12:50 PM,48.2,35.6,62,30.48,-9999.0,North,-9999.0,-,N/A,,Scattered Clouds,0,2013-03-05 10:50:00
1:50 PM,50.0,32.0,50,30.48,-9999.0,North,-9999.0,-,N/A,,Scattered Clouds,0,2013-03-05 11:50:00
2:00 PM,50,32,38,30.48,6,Calm,Calm,,,,Partly Cloudy,,2013-03-05 12:00:00
2:20 PM,50.0,32.0,50,30.48,-9999.0,North,-9999.0,-,N/A,,Scattered Clouds,0,2013-03-05 12:20:00
2:50 PM,51.8,32.0,47,30.45,-9999.0,North,-9999.0,-,N/A,,Partly Cloudy,0,2013-03-05 12:50:00
3:20 PM,51.8,30.2,44,30.45,-9999.0,North,-9999.0,-,N/A,,Partly Cloudy,0,2013-03-05 13:20:00
3:50 PM,51.8,30.2,44,30.42,-9999.0,North,-9999.0,-,N/A,,Partly Cloudy,0,2013-03-05 13:50:00
4:20 PM,50.0,32.0,50,30.42,-9999.0,North,-9999.0,-,N/A,,Partly Cloudy,0,2013-03-05 14:20:00
4:50 PM,50.0,26.6,40,30.45,-9999.0,North,-9999.0,-,N/A,,Partly Cloudy,0,2013-03-05 14:50:00
5:20 PM,50.0,26.6,40,30.45,-9999.0,North,-9999.0,-,N/A,,Partly Cloudy,0,2013-03-05 15:20:00
5:50 PM,48.2,30.2,50,30.45,-9999.0,North,-9999.0,-,N/A,,Partly Cloudy,0,2013-03-05 15:50:00
6:20 PM,48.2,30.2,50,30.45,-9999.0,North,-9999.0,-,N/A,,Partly Cloudy,0,2013-03-05 16:20:00
6:50 PM,46.4,33.8,62,30.45,-9999.0,North,-9999.0,-,N/A,,Partly Cloudy,0,2013-03-05 16:50:00
7:20 PM,46.4,33.8,62,30.45,-9999.0,North,-9999.0,-,N/A,,Partly Cloudy,0,2013-03-05 17:20:00
7:50 PM,41.0,30.2,65,30.45,-9999.0,North,-9999.0,-,N/A,,Partly Cloudy,0,2013-03-05 17:50:00
8:00 PM,42,30,52,30.47,6,Calm,Calm,,,,Scattered Clouds,,2013-03-05 18:00:00
8:20 PM,41.0,30.2,65,30.45,-9999.0,North,-9999.0,-,N/A,,Partly Cloudy,0,2013-03-05 18:20:00
8:50 PM,41.0,30.2,65,30.48,-9999.0,North,-9999.0,-,N/A,,Partly Cloudy,0,2013-03-05 18:50:00
9:20 PM,41.0,30.2,65,30.48,-9999.0,North,-9999.0,-,N/A,,Partly Cloudy,0,2013-03-05 19:20:00
9:50 PM,41.0,32.0,70,30.48,-9999.0,North,-9999.0,-,N/A,,Clear,0,2013-03-05 19:50:00
10:20 PM,41.0,32.0,70,3.04,-9999.0,North,-9999.0,-,N/A,,Clear,0,2013-03-05 20:20:00
10:50 PM,39.2,32.0,75,30.48,-9999.0,North,-9999.0,-,N/A,,Clear,0,2013-03-05 20:50:00
11:20 PM,39.2,32.0,75,30.48,-9999.0,North,-9999.0,-,N/A,,Clear,0,2013-03-05 21:20:00
11:50 PM,39.2,30.2,70,30.48,-9999.0,North,-9999.0,-,N/A,,Clear,0,2013-03-05 21:50:00